Astrocast-0103

operational
NORAD ID: 47487 Int'l Des: 2021-006 Owner: ACAST Country: CH
LEOCIRCULARRETROGRADE

Über Astrocast-0103

Beschreibung wird geladen...

Live-Position

3D-Globus wird geladen...

Nächste Überflüge

Höhenverlauf

Altitude vs Time

uPlot chart will show altitude changes over time

Zweizeiliger Elementsatz

1 47487U 21006CC 26062.59157297 .00100771 00000-0 76805-3 0 9995
2 47487 97.2651 131.7179 0005639 156.1150 204.0376 15.71913169284563
Epoch: 3. März 2026 • Age: 30 hours

Aktueller Status

Höhe 352.8 km
Geschwindigkeit 7.70 km/s
Subsatellitenpunkt 27.15°N, 62.27°E
Startdatum 24. Jan. 2021
Alter 5.1 years
Typ other

Technische Details

Klassifizierung Payload
Masse 5.00 kg
Trockenmasse 5.00 kg
Gesamtmasse 5.00 kg
Länge 0.30 m
Durchmesser 0.10 m
Spannweite 0.30 m
Form Box
Hersteller ACAST
Bus-Typ Cubesat 3U
Phasenstatus In Orbit
Besitzer/Staat ACAST/CH

Große Konstellationen

Loading constellations...